| time (UTC) | temp C | wind direction | speed KPH | gust KPH | rain 1hr cm | rain 24hr cm | rain mn cm | humidity % | barometer mb |
| 20260505100521 | 5 | 86 | 9.7 | 17.7 | 0.00 | 0.20 | 0.00 | 96 | 1016.5 |
| 20260505095543 | 5 | 78 | 9.7 | 12.9 | 0.00 | 0.20 | 0.00 | 97 | 1016.8 |
| 20260505094520 | 6 | 87 | 6.4 | 11.3 | 0.00 | 0.20 | 0.00 | 98 | 1017.3 |
| 20260505093519 | 6 | 96 | 4.8 | 11.3 | 0.00 | 0.20 | 0.00 | 98 | 1018.0 |
| 20260505092522 | 6 | 69 | 4.8 | 11.3 | 0.00 | 0.20 | 0.00 | 98 | 1017.7 |
| 20260505091519 | 6 | 0.0 | 8.0 | 0.00 | 0.20 | 0.00 | 98 | 1017.7 | |
| 20260505090521 | 6 | 74 | 1.6 | 8.0 | 0.00 | 0.20 | 0.00 | 98 | 1017.7 |
| 20260505085520 | 6 | 48 | 1.6 | 8.0 | 0.00 | 0.20 | 0.00 | 98 | 1017.7 |
| 20260505084519 | 6 | 110 | 4.8 | 8.0 | 0.00 | 0.20 | 0.00 | 98 | 1017.7 |
| 20260505083521 | 6 | 79 | 3.2 | 8.0 | 0.00 | 0.20 | 0.00 | 98 | 1018.0 |
| 20260505082522 | 6 | 113 | 0.0 | 4.8 | 0.00 | 0.20 | 0.00 | 98 | 1018.0 |
| 20260505081519 | 6 | 113 | 1.6 | 4.8 | 0.00 | 0.20 | 0.00 | 98 | 1018.1 |
| 20260505080543 | 6 | 0.0 | 4.8 | 0.00 | 0.20 | 0.00 | 98 | 1018.5 | |
| 20260505075520 | 6 | 90 | 0.0 | 4.8 | 0.00 | 0.20 | 0.00 | 98 | 1018.7 |
| 20260505074519 | 6 | 0.0 | 4.8 | 0.00 | 0.20 | 0.00 | 98 | 1018.4 | |
| 20260505073520 | 6 | 158 | 0.0 | 4.8 | 0.00 | 0.20 | 0.00 | 98 | 1017.5 |
| 20260505072520 | 6 | 136 | 0.0 | 4.8 | 0.00 | 0.20 | 0.00 | 98 | 1017.5 |
| 20260505071520 | 6 | 147 | 0.0 | 4.8 | 0.00 | 0.20 | 0.00 | 98 | 1017.7 |
| 20260505070522 | 7 | 150 | 1.6 | 4.8 | 0.00 | 0.20 | 0.00 | 99 | 1018.3 |
| 20260505065542 | 7 | 0.0 | 0.0 | 0.00 | 0.20 | 0.00 | 99 | 1018.3 | |
| 20260505064607 | 7 | 0.0 | 0.0 | 0.03 | 0.20 | 0.00 | 99 | 1018.7 | |
| 20260505063520 | 7 | 0.0 | 0.0 | 0.03 | 0.20 | 0.00 | 99 | 1018.7 | |
| 20260505062521 | 7 | 0.0 | 0.0 | 0.03 | 0.20 | 0.00 | 99 | 1019.0 | |
| 20260505061518 | 7 | 0.0 | 0.0 | 0.05 | 0.20 | 0.00 | 99 | 1019.3 | |
| 20260505060521 | 7 | 0.0 | 0.0 | 0.05 | 0.20 | 0.00 | 99 | 1019.8 | |
| 20260505055522 | 7 | 0.0 | 3.2 | 0.08 | 0.20 | 0.20 | 99 | 1019.5 | |
| 20260505054521 | 7 | 0.0 | 8.0 | 0.05 | 0.18 | 0.18 | 98 | 1019.4 | |
| 20260505053520 | 7 | 0.0 | 11.3 | 0.05 | 0.18 | 0.18 | 97 | 1019.0 | |
| 20260505052521 | 7 | 0.0 | 11.3 | 0.08 | 0.18 | 0.18 | 97 | 1019.8 | |
| 20260505051521 | 7 | 0.0 | 11.3 | 0.08 | 0.15 | 0.15 | 97 | 1019.6 | |
| 20260505050520 | 7 | 0.0 | 11.3 | 0.10 | 0.15 | 0.15 | 97 | 1019.5 | |
| 20260505041520 | 8 | 269 | 3.2 | 9.7 | 0.08 | 0.08 | 0.08 | 89 | 1019.1 |
| 20260505040519 | 10 | 288 | 4.8 | 9.7 | 0.05 | 0.05 | 0.05 | 82 | 1018.8 |
| 20260505035543 | 10 | 285 | 3.2 | 8.0 | 0.00 | 0.00 | 0.00 | 69 | 1018.9 |
| 20260505034520 | 10 | 279 | 3.2 | 6.4 | 0.00 | 0.00 | 0.00 | 69 | 1018.2 |
| 20260505033543 | 10 | 359 | 3.2 | 6.4 | 0.00 | 0.00 | 0.00 | 67 | 1017.9 |
| 20260505032519 | 10 | 65 | 3.2 | 6.4 | 0.00 | 0.00 | 0.00 | 66 | 1017.9 |
| 20260505031520 | 10 | 54 | 3.2 | 6.4 | 0.00 | 0.00 | 0.00 | 66 | 1017.6 |
| 20260505030520 | 10 | 70 | 3.2 | 8.0 | 0.00 | 0.00 | 0.00 | 64 | 1017.1 |
| 20260505025519 | 10 | 62 | 3.2 | 11.3 | 0.00 | 0.00 | 0.00 | 64 | 1016.8 |
| 20260505024520 | 10 | 68 | 3.2 | 11.3 | 0.00 | 0.00 | 0.00 | 64 | 1016.5 |
| 20260505023519 | 10 | 55 | 3.2 | 12.9 | 0.00 | 0.00 | 0.00 | 65 | 1015.9 |
| 20260505022521 | 10 | 69 | 3.2 | 17.7 | 0.00 | 0.00 | 0.00 | 65 | 1015.6 |
| 20260505021520 | 10 | 54 | 3.2 | 17.7 | 0.00 | 0.00 | 0.00 | 66 | 1015.5 |
| 20260505020520 | 10 | 78 | 3.2 | 22.5 | 0.00 | 0.00 | 0.00 | 66 | 1015.2 |
| 20260505015519 | 11 | 64 | 3.2 | 22.5 | 0.00 | 0.00 | 0.00 | 65 | 1015.2 |
| 20260505014520 | 11 | 62 | 4.8 | 22.5 | 0.00 | 0.00 | 0.00 | 61 | 1015.0 |
| 20260505013521 | 12 | 61 | 4.8 | 22.5 | 0.00 | 0.00 | 0.00 | 56 | 1015.1 |
| 20260505012520 | 12 | 26 | 8.0 | 22.5 | 0.00 | 0.00 | 0.00 | 55 | 1014.8 |
| 20260505011519 | 12 | 329 | 11.3 | 22.5 | 0.00 | 0.00 | 0.00 | 53 | 1015.1 |
| 20260505010522 | 13 | 300 | 11.3 | 22.5 | 0.00 | 0.00 | 0.00 | 49 | 1015.1 |
| 20260505005543 | 13 | 35 | 9.7 | 17.7 | 0.00 | 0.00 | 0.00 | 47 | 1014.8 |
| 20260505004521 | 13 | 352 | 6.4 | 17.7 | 0.00 | 0.00 | 0.00 | 46 | 1014.8 |
| 20260505003521 | 14 | 332 | 9.7 | 17.7 | 0.00 | 0.00 | 0.00 | 45 | 1014.5 |
| 20260505002542 | 14 | 333 | 9.7 | 17.7 | 0.00 | 0.00 | 0.00 | 44 | 1014.2 |
| 20260505001519 | 15 | 330 | 9.7 | 22.5 | 0.00 | 0.00 | 0.00 | 41 | 1014.5 |
| 20260505000545 | 15 | 8 | 11.3 | 22.5 | 0.00 | 0.00 | 0.00 | 37 | 1014.1 |
| 20260504235524 | 16 | 30 | 9.7 | 22.5 | 0.00 | 0.00 | 0.00 | 37 | 1014.5 |
| 20260504234543 | 16 | 55 | 8.0 | 22.5 | 0.00 | 0.00 | 0.00 | 37 | 1014.5 |
| 20260504233519 | 16 | 339 | 9.7 | 22.5 | 0.00 | 0.00 | 0.00 | 37 | 1014.2 |
| 20260504232542 | 16 | 359 | 9.7 | 25.7 | 0.00 | 0.00 | 0.00 | 37 | 1013.9 |
| 20260504231519 | 16 | 30 | 12.9 | 25.7 | 0.00 | 0.00 | 0.00 | 36 | 1013.8 |
| 20260504230519 | 16 | 36 | 9.7 | 25.7 | 0.00 | 0.00 | 0.00 | 36 | 1013.8 |
| 20260504225521 | 17 | 36 | 11.3 | 25.7 | 0.00 | 0.00 | 0.00 | 35 | 1013.5 |
| 20260504224521 | 17 | 41 | 11.3 | 25.7 | 0.00 | 0.00 | 0.00 | 35 | 1013.6 |
| 20260504223521 | 17 | 360 | 12.9 | 25.7 | 0.00 | 0.00 | 0.00 | 34 | 1014.2 |
| 20260504222521 | 17 | 359 | 14.5 | 25.7 | 0.00 | 0.00 | 0.00 | 34 | 1013.9 |
| 20260504221521 | 18 | 333 | 11.3 | 20.9 | 0.00 | 0.00 | 0.00 | 31 | 1013.9 |
| 20260504220522 | 19 | 328 | 8.0 | 20.9 | 0.00 | 0.00 | 0.00 | 26 | 1014.0 |
| 20260504215607 | 20 | 23 | 11.3 | 20.9 | 0.00 | 0.00 | 0.00 | 26 | 1014.3 |
| 20260504214544 | 20 | 42 | 6.4 | 17.7 | 0.00 | 0.00 | 0.00 | 25 | 1014.6 |
| 20260504213543 | 20 | 26 | 9.7 | 17.7 | 0.00 | 0.00 | 0.00 | 25 | 1014.6 |
| 20260504212519 | 21 | 6 | 11.3 | 17.7 | 0.00 | 0.00 | 0.00 | 25 | 1015.1 |
| 20260504211519 | 21 | 338 | 8.0 | 17.7 | 0.00 | 0.00 | 0.00 | 25 | 1015.3 |
| 20260504210519 | 21 | 304 | 6.4 | 17.7 | 0.00 | 0.00 | 0.00 | 24 | 1015.4 |
| 20260504205521 | 21 | 354 | 8.0 | 17.7 | 0.00 | 0.00 | 0.00 | 26 | 1015.5 |
| 20260504204521 | 21 | 354 | 8.0 | 16.1 | 0.00 | 0.00 | 0.00 | 24 | 1015.4 |
| 20260504203518 | 21 | 313 | 8.0 | 19.3 | 0.00 | 0.00 | 0.00 | 24 | 1016.1 |
| 20260504202521 | 21 | 297 | 6.4 | 19.3 | 0.00 | 0.00 | 0.00 | 24 | 1016.0 |
| 20260504201521 | 22 | 19 | 8.0 | 19.3 | 0.00 | 0.00 | 0.00 | 23 | 1016.2 |
| 20260504200545 | 21 | 34 | 4.8 | 19.3 | 0.00 | 0.00 | 0.00 | 24 | 1016.3 |
| 20260504195521 | 21 | 338 | 9.7 | 19.3 | 0.00 | 0.00 | 0.00 | 24 | 1016.6 |
| 20260504194520 | 21 | 341 | 4.8 | 19.3 | 0.00 | 0.00 | 0.00 | 25 | 1016.6 |
| 20260504193543 | 20 | 39 | 4.8 | 22.5 | 0.00 | 0.00 | 0.00 | 25 | 1016.7 |
| 20260504192519 | 19 | 76 | 11.3 | 22.5 | 0.00 | 0.00 | 0.00 | 26 | 1016.2 |
| 20260504191520 | 19 | 331 | 8.0 | 22.5 | 0.00 | 0.00 | 0.00 | 26 | 1016.0 |
| 20260504190545 | 18 | 267 | 9.7 | 22.5 | 0.00 | 0.00 | 0.00 | 25 | 1015.8 |
| 20260504185521 | 18 | 260 | 11.3 | 22.5 | 0.00 | 0.00 | 0.00 | 24 | 1016.2 |
| 20260504184521 | 19 | 280 | 6.4 | 22.5 | 0.00 | 0.00 | 0.00 | 23 | 1016.1 |
| 20260504183520 | 20 | 353 | 8.0 | 11.3 | 0.00 | 0.00 | 0.00 | 25 | 1016.9 |
| 20260504182545 | 20 | 257 | 4.8 | 11.3 | 0.00 | 0.00 | 0.00 | 25 | 1016.9 |
| 20260504181520 | 20 | 281 | 6.4 | 11.3 | 0.00 | 0.00 | 0.00 | 25 | 1017.0 |
| 20260504180520 | 21 | 298 | 4.8 | 12.9 | 0.00 | 0.00 | 0.00 | 25 | 1017.4 |
| 20260504175521 | 21 | 101 | 8.0 | 12.9 | 0.00 | 0.00 | 0.00 | 23 | 1017.8 |
| 20260504174545 | 22 | 283 | 4.8 | 16.1 | 0.00 | 0.00 | 0.00 | 23 | 1018.5 |
| 20260504173520 | 22 | 279 | 6.4 | 16.1 | 0.00 | 0.00 | 0.00 | 25 | 1018.6 |
| 20260504172520 | 21 | 239 | 6.4 | 19.3 | 0.00 | 0.00 | 0.00 | 24 | 1018.4 |
| 20260504171542 | 21 | 251 | 6.4 | 19.3 | 0.00 | 0.00 | 0.00 | 25 | 1018.6 |
| 20260504170519 | 21 | 293 | 6.4 | 19.3 | 0.00 | 0.00 | 0.00 | 25 | 1018.7 |
| 20260504150522 | 17 | 283 | 9.7 | 12.9 | 0.00 | 0.00 | 0.00 | 30 | 1018.5 |
| 20260504140521 | 12 | 238 | 3.2 | 9.7 | 0.00 | 0.00 | 0.00 | 40 | 1017.3 |
| 20260504130651 | 10 | 209 | 4.8 | 9.7 | 0.00 | 0.00 | 0.00 | 42 | 1016.5 |
| 20260504110521 | 8 | 204 | 3.2 | 8.0 | 0.00 | 0.00 | 0.00 | 50 | 1016.9 |